Weather History for Edinburg, TX

Change the Weather History Date:

Monday, December 5, 2011

  Actual Average (KMFE) Record (KMFE)
Temperature  
Mean Temperature 59 °F 64 °F  
Max Temperature 66 °F 74 °F 94 °F (1953)
Min Temperature 52 °F 54 °F 33 °F (2009)
Degree Days  
Heating Degree Days 6 4  
Month to date heating degree days 20  
Since 1 July heating degree days 80  
Cooling Degree Days 0 3  
Month to date cooling degree days 17  
Year to date cooling degree days 4386  
Growing Degree Days 9 (Base 50)    
Moisture  
Dew Point 48 °F    
Average Humidity 69    
Maximum Humidity 90    
Minimum Humidity 44    
Precipitation  
Precipitation 0.01 in 0.04 in 0.35 in (1979)
Month to date precipitation 0.16  
Year to date precipitation 21.17  
Sea Level Pressure  
Sea Level Pressure 30.06 in    
Wind  
Wind Speed 12 mph (North)    
Max Wind Speed 18 mph    
Max Gust Speed 25 mph    
Visibility 10 miles    
Events Rain    
T = Trace of Precipitation, MM = Missing Value Source: NWS Daily Summary

Daily Weather History Graph

Daily Weather History Graph

Search for Another Location

Airport:

Trip Planner

Search our weather history database for the weather conditions in past years. The results will help you decide how hot, cold, wet, or windy it might be!

Date:

Astronomy

Dec. 05, 2011 Rise Set
Actual Time 7:06 AM CST 5:39 PM CST
Civil Twilight 6:40 AM CST 6:05 PM CST
Nautical Twilight 6:12 AM CST 6:33 PM CST
Astronomical Twilight 5:44 AM CST 7:01 PM CST
Moon 2:22 PM CST (12/5) 2:47 AM CST (12/5)
Length of Visible Light 11h 24m
Length of Day
10h 33m
Waxing Gibbous, 80% of the Moon is Illuminated
Dec 5
Waxing Gibbous
Dec 10
Full
Dec 17
Last Quarter
Dec 24
New
Jan 1
First Quarter

Hourly Weather History & Observations

Time (CST) Temp. Dew Point Humidity Pressure Visibility Wind Dir Wind Speed Gust Speed Precip Events Conditions
12:15 AM 60.4 °F 56.3 °F 86% 29.90 in 7.0 mi NNW 9.2 mph - N/A Rain Rain
12:35 AM 60.1 °F 56.3 °F 87% 29.89 in 10.0 mi NNW 8.1 mph - N/A   Light Drizzle
1:15 AM 59.2 °F 56.1 °F 90% 29.88 in 10.0 mi North 6.9 mph - N/A   Overcast
1:35 AM 59.2 °F 56.3 °F 90% 29.89 in 10.0 mi NNW 8.1 mph - N/A Rain Light Rain
1:55 AM 59.2 °F 56.3 °F 90% 29.90 in 7.0 mi NW 9.2 mph - 0.01 in Rain Rain
2:15 AM 58.8 °F 55.9 °F 90% 29.90 in 10.0 mi NNW 8.1 mph - N/A   Overcast
2:35 AM 58.8 °F 55.8 °F 90% 29.90 in 10.0 mi NW 11.5 mph - N/A   Drizzle
3:15 AM 58.5 °F 55.4 °F 90% 29.91 in 10.0 mi NNW 11.5 mph 16.1 mph N/A   Overcast
3:35 AM 58.3 °F 55.0 °F 89% 29.91 in 10.0 mi NW 12.7 mph - N/A   Overcast
4:15 AM 58.5 °F 54.7 °F 87% 29.94 in 10.0 mi NW 11.5 mph - N/A   Overcast
4:35 AM 58.3 °F 54.1 °F 86% 29.95 in 10.0 mi NNW 15.0 mph - N/A   Overcast
5:15 AM 57.4 °F 52.7 °F 84% 29.98 in 10.0 mi NNW 16.1 mph 20.7 mph N/A   Overcast
5:35 AM 56.8 °F 52.0 °F 84% 29.99 in 10.0 mi NNW 18.4 mph - N/A   Overcast
6:55 AM 55.8 °F 51.1 °F 84% 30.03 in 10.0 mi North 17.3 mph 21.9 mph N/A   Overcast
7:15 AM 55.6 °F 50.9 °F 84% 30.05 in 10.0 mi North 15.0 mph 21.9 mph N/A   Overcast
7:35 AM 55.4 °F 50.9 °F 85% 30.05 in 10.0 mi North 13.8 mph 19.6 mph N/A   Overcast
7:55 AM 55.4 °F 51.1 °F 85% 30.06 in 10.0 mi North 13.8 mph 18.4 mph N/A   Overcast
8:15 AM 55.6 °F 51.1 °F 85% 30.07 in 10.0 mi North 12.7 mph - N/A   Overcast
8:35 AM 55.8 °F 51.1 °F 84% 30.09 in 10.0 mi North 11.5 mph - N/A   Overcast
9:15 AM 56.7 °F 50.4 °F 79% 30.11 in 2.5 mi North 15.0 mph - N/A   Haze
9:35 AM 56.8 °F 50.2 °F 78% 30.11 in 10.0 mi North 17.3 mph 23.0 mph N/A   Overcast
10:15 AM 57.7 °F 50.0 °F 75% 30.12 in 10.0 mi NNW 17.3 mph 24.2 mph N/A   Overcast
10:35 AM 58.1 °F 49.8 °F 74% 30.12 in 10.0 mi NNW 16.1 mph 23.0 mph N/A   Overcast
11:15 AM 58.5 °F 48.2 °F 69% 30.11 in 10.0 mi NNW 18.4 mph - N/A   Overcast
11:35 AM 59.0 °F 47.3 °F 65% 30.11 in 10.0 mi NNW 16.1 mph - N/A   Overcast
11:55 AM 60.3 °F 46.9 °F 61% 30.10 in 10.0 mi NNW 15.0 mph - N/A   Overcast
12:15 PM 60.8 °F 47.3 °F 61% 30.10 in 10.0 mi NNW 16.1 mph 20.7 mph N/A   Overcast
12:35 PM 61.2 °F 47.3 °F 60% 30.10 in 10.0 mi North 15.0 mph 20.7 mph N/A   Overcast
1:15 PM 62.8 °F 46.9 °F 56% 30.07 in 10.0 mi North 12.7 mph 18.4 mph N/A   Overcast
1:35 PM 64.9 °F 46.6 °F 51% 30.06 in 10.0 mi North 18.4 mph - N/A   Overcast
2:15 PM 66.7 °F 45.5 °F 46% 30.05 in 10.0 mi North 16.1 mph 25.3 mph N/A   Scattered Clouds
2:35 PM 66.6 °F 45.0 °F 46% 30.05 in 10.0 mi North 15.0 mph - N/A   Clear
3:15 PM 66.2 °F 43.9 °F 44% 30.05 in 10.0 mi NNE 16.1 mph 21.9 mph N/A   Clear
3:35 PM 66.6 °F 43.7 °F 44% 30.05 in 10.0 mi North 18.4 mph 24.2 mph N/A   Scattered Clouds
3:55 PM 66.2 °F 43.7 °F 44% 30.05 in 10.0 mi NNE 15.0 mph 19.6 mph N/A   Mostly Cloudy
4:15 PM 65.7 °F 43.3 °F 44% 30.05 in 10.0 mi North 15.0 mph 20.7 mph N/A   Scattered Clouds
4:35 PM 65.3 °F 43.5 °F 45% 30.06 in 10.0 mi North 12.7 mph 19.6 mph N/A   Scattered Clouds
5:15 PM 63.1 °F 43.9 °F 49% 30.08 in 10.0 mi NNE 12.7 mph 17.3 mph N/A   Clear
5:35 PM 61.5 °F 43.9 °F 52% 30.09 in 10.0 mi NNE 11.5 mph - N/A   Clear
5:55 PM 60.1 °F 43.9 °F 55% 30.10 in 10.0 mi NNE 12.7 mph - N/A   Clear
6:15 PM 59.0 °F 43.7 °F 57% 30.11 in 10.0 mi NNE 12.7 mph 17.3 mph N/A   Clear
6:35 PM 58.3 °F 43.7 °F 58% 30.12 in 10.0 mi NNE 10.4 mph - N/A   Clear
6:55 PM 57.0 °F 43.7 °F 61% 30.13 in 10.0 mi North 11.5 mph 17.3 mph N/A   Clear
7:15 PM 56.3 °F 43.5 °F 62% 30.14 in 10.0 mi NNE 12.7 mph 19.6 mph N/A   Mostly Cloudy
7:35 PM 55.9 °F 43.3 °F 63% 30.15 in 10.0 mi North 11.5 mph - N/A   Overcast
7:55 PM 55.2 °F 43.2 °F 64% 30.15 in 10.0 mi North 15.0 mph 19.6 mph N/A   Overcast
8:15 PM 54.7 °F 43.0 °F 65% 30.16 in 10.0 mi North 12.7 mph 17.3 mph N/A   Mostly Cloudy
8:35 PM 54.5 °F 42.8 °F 65% 30.17 in 10.0 mi North 15.0 mph - N/A   Overcast
9:55 PM - - N/A% 30.19 in 10.0 mi NNE 13.8 mph - N/A   Overcast
10:15 PM 53.4 °F 42.4 °F 66% 30.19 in 10.0 mi NNE 13.8 mph 18.4 mph N/A   Overcast
10:35 PM 53.2 °F 42.4 °F 67% 30.19 in 10.0 mi NNE 12.7 mph - N/A   Overcast
11:15 PM 52.9 °F 42.3 °F 67% 30.20 in 10.0 mi NE 11.5 mph - N/A   Overcast
11:35 PM 52.5 °F 41.9 °F 67% 30.21 in 10.0 mi NNE 9.2 mph - N/A   Overcast